Time,TemperatureF,DewpointF,PressureIn,WindDirection,WindDirectionDegrees,WindSpeedMPH,WindSpeedGustMPH,Humidity,HourlyPrecipIn,Conditions,Clouds,dailyrainin,SoftwareType,DateUTC
2013-03-27 00:00:00,35.6,16.8,29.75,North,-999,0.0,0.0,46,0.00,,,-99.99,WeatherLink 5.5,2013-03-27 04:00:00,
2013-03-27 00:15:00,34.7,17.0,29.75,WSW,247,0.0,4.0,48,0.00,,,-99.99,WeatherLink 5.5,2013-03-27 04:15:00,
2013-03-27 00:30:00,34.6,16.9,29.75,North,-999,0.0,0.0,48,0.00,,,-99.99,WeatherLink 5.5,2013-03-27 04:30:00,
2013-03-27 00:45:00,34.4,16.7,29.75,WSW,247,0.0,2.0,48,0.00,,,-99.99,WeatherLink 5.5,2013-03-27 04:45:00,
2013-03-27 01:00:00,34.1,16.9,29.75,WSW,247,0.0,2.0,49,0.00,,,-99.99,WeatherLink 5.5,2013-03-27 05:00:00,
2013-03-27 01:15:00,33.5,16.8,29.75,North,-999,0.0,0.0,50,0.00,,,-99.99,WeatherLink 5.5,2013-03-27 05:15:00,
2013-03-27 01:30:00,32.8,17.5,29.75,North,-999,0.0,0.0,53,0.00,,,-99.99,WeatherLink 5.5,2013-03-27 05:30:00,
2013-03-27 01:45:00,32.8,16.6,29.75,WSW,247,0.0,4.0,51,0.00,,,-99.99,WeatherLink 5.5,2013-03-27 05:45:00,
2013-03-27 02:00:00,33.2,17.0,29.75,North,-999,0.0,0.0,51,0.00,,,-99.99,WeatherLink 5.5,2013-03-27 06:00:00,
2013-03-27 02:15:00,32.4,17.2,29.75,North,-999,0.0,0.0,53,0.00,,,-99.99,WeatherLink 5.5,2013-03-27 06:15:00,
2013-03-27 02:30:00,31.2,17.3,29.75,North,-999,0.0,0.0,56,0.00,,,-99.99,WeatherLink 5.5,2013-03-27 06:30:00,
2013-03-27 02:45:00,30.1,17.1,29.75,North,-999,0.0,0.0,58,0.00,,,-99.99,WeatherLink 5.5,2013-03-27 06:45:00,
2013-03-27 03:00:00,29.7,17.1,29.75,North,-999,0.0,0.0,59,0.00,,,-99.99,WeatherLink 5.5,2013-03-27 07:00:00,
2013-03-27 03:15:00,29.2,17.0,29.74,North,-999,0.0,0.0,60,0.00,,,-99.99,WeatherLink 5.5,2013-03-27 07:15:00,
2013-03-27 03:30:00,28.8,17.0,29.74,North,-999,0.0,0.0,61,0.00,,,-99.99,WeatherLink 5.5,2013-03-27 07:30:00,
2013-03-27 03:45:00,28.4,17.8,29.74,North,-999,0.0,0.0,64,0.00,,,-99.99,WeatherLink 5.5,2013-03-27 07:45:00,
2013-03-27 04:00:00,28.1,17.5,29.74,North,-999,0.0,0.0,64,0.00,,,-99.99,WeatherLink 5.5,2013-03-27 08:00:00,
2013-03-27 04:15:00,27.8,17.9,29.74,North,-999,0.0,0.0,66,0.00,,,-99.99,WeatherLink 5.5,2013-03-27 08:15:00,
2013-03-27 04:30:00,27.5,18.0,29.74,North,-999,0.0,0.0,67,0.00,,,-99.99,WeatherLink 5.5,2013-03-27 08:30:00,
2013-03-27 04:45:00,27.2,18.0,29.74,North,-999,0.0,0.0,68,0.00,,,-99.99,WeatherLink 5.5,2013-03-27 08:45:00,
2013-03-27 05:00:00,27.0,18.2,29.74,North,-999,0.0,0.0,69,0.00,,,-99.99,WeatherLink 5.5,2013-03-27 09:00:00,
2013-03-27 05:15:00,26.7,18.2,29.74,North,-999,0.0,0.0,70,0.00,,,-99.99,WeatherLink 5.5,2013-03-27 09:15:00,
2013-03-27 05:30:00,26.4,17.9,29.74,North,-999,0.0,0.0,70,0.00,,,-99.99,WeatherLink 5.5,2013-03-27 09:30:00,
2013-03-27 05:45:00,26.3,18.2,29.75,North,-999,0.0,0.0,71,0.00,,,-99.99,WeatherLink 5.5,2013-03-27 09:45:00,
2013-03-27 06:00:00,26.1,18.3,29.75,North,-999,0.0,0.0,72,0.00,,,-99.99,WeatherLink 5.5,2013-03-27 10:00:00,
2013-03-27 06:15:00,26.1,18.3,29.75,North,-999,0.0,0.0,72,0.00,,,-99.99,WeatherLink 5.5,2013-03-27 10:15:00,
2013-03-27 06:30:00,25.8,18.0,29.75,North,-999,0.0,0.0,72,0.00,,,-99.99,WeatherLink 5.5,2013-03-27 10:30:00,
2013-03-27 06:45:00,25.7,18.2,29.76,North,-999,0.0,0.0,73,0.00,,,-99.99,WeatherLink 5.5,2013-03-27 10:45:00,
2013-03-27 07:00:00,25.5,18.0,29.76,North,-999,0.0,0.0,73,0.00,,,-99.99,WeatherLink 5.5,2013-03-27 11:00:00,
2013-03-27 07:15:00,25.7,17.9,29.76,North,-999,0.0,0.0,72,0.00,,,-99.99,WeatherLink 5.5,2013-03-27 11:15:00,
2013-03-27 07:30:00,25.8,18.0,29.76,North,-999,0.0,0.0,72,0.00,,,-99.99,WeatherLink 5.5,2013-03-27 11:30:00,
2013-03-27 07:45:00,26.6,18.8,29.76,North,-999,0.0,0.0,72,0.00,,,-99.99,WeatherLink 5.5,2013-03-27 11:45:00,
2013-03-27 08:00:00,28.4,19.9,29.76,North,-999,0.0,0.0,70,0.00,,,-99.99,WeatherLink 5.5,2013-03-27 12:00:00,
2013-03-27 08:15:00,30.0,20.4,29.76,North,-999,0.0,0.0,67,0.00,,,-99.99,WeatherLink 5.5,2013-03-27 12:15:00,
2013-03-27 08:30:00,34.0,21.6,29.77,North,-999,0.0,0.0,60,0.00,,,-99.99,WeatherLink 5.5,2013-03-27 12:30:00,
2013-03-27 08:45:00,37.9,22.7,29.77,North,-999,0.0,0.0,54,0.00,,,-99.99,WeatherLink 5.5,2013-03-27 12:45:00,
2013-03-27 09:00:00,39.5,18.3,29.77,SW,225,2.0,8.0,42,0.00,,,-99.99,WeatherLink 5.5,2013-03-27 13:00:00,
2013-03-27 09:15:00,41.2,17.5,29.76,WSW,247,1.0,6.0,38,0.00,,,-99.99,WeatherLink 5.5,2013-03-27 13:15:00,
2013-03-27 09:30:00,42.5,16.7,29.76,WSW,247,5.0,9.0,35,0.00,,,-99.99,WeatherLink 5.5,2013-03-27 13:30:00,
2013-03-27 09:45:00,43.6,16.3,29.76,WSW,247,3.0,9.0,33,0.00,,,-99.99,WeatherLink 5.5,2013-03-27 13:45:00,
2013-03-27 10:00:00,44.5,16.4,29.76,West,270,3.0,9.0,32,0.00,,,-99.99,WeatherLink 5.5,2013-03-27 14:00:00,
2013-03-27 10:15:00,45.4,16.5,29.76,WNW,292,3.0,7.0,31,0.00,,,-99.99,WeatherLink 5.5,2013-03-27 14:15:00,
2013-03-27 10:30:00,46.1,17.1,29.76,West,270,1.0,6.0,31,0.00,,,-99.99,WeatherLink 5.5,2013-03-27 14:30:00,
2013-03-27 10:45:00,46.8,17.0,29.75,West,270,5.0,13.0,30,0.00,,,-99.99,WeatherLink 5.5,2013-03-27 14:45:00,
2013-03-27 11:00:00,47.3,16.6,29.75,West,270,4.0,9.0,29,0.00,,,-99.99,WeatherLink 5.5,2013-03-27 15:00:00,
2013-03-27 11:15:00,48.0,16.4,29.75,West,270,2.0,10.0,28,0.00,,,-99.99,WeatherLink 5.5,2013-03-27 15:15:00,
2013-03-27 11:30:00,48.3,15.8,29.75,West,270,8.0,16.0,27,0.00,,,-99.99,WeatherLink 5.5,2013-03-27 15:30:00,
2013-03-27 11:45:00,48.2,15.7,29.75,WNW,292,9.0,16.0,27,0.00,,,-99.99,WeatherLink 5.5,2013-03-27 15:45:00,
2013-03-27 12:00:00,48.9,16.3,29.74,WSW,247,8.0,14.0,27,0.00,,,-99.99,WeatherLink 5.5,2013-03-27 16:00:00,
2013-03-27 12:15:00,49.9,14.5,29.73,West,270,7.0,14.0,24,0.00,,,-99.99,WeatherLink 5.5,2013-03-27 16:15:00,
2013-03-27 12:30:00,50.5,13.0,29.73,West,270,8.0,16.0,22,0.00,,,-99.99,WeatherLink 5.5,2013-03-27 16:30:00,
2013-03-27 12:45:00,51.1,12.5,29.73,WSW,247,7.0,16.0,21,0.00,,,-99.99,WeatherLink 5.5,2013-03-27 16:45:00,
2013-03-27 13:00:00,51.3,13.7,29.72,WSW,247,10.0,20.0,22,0.00,,,-99.99,WeatherLink 5.5,2013-03-27 17:00:00,
2013-03-27 13:15:00,51.4,11.6,29.72,SW,225,7.0,13.0,20,0.00,,,-99.99,WeatherLink 5.5,2013-03-27 17:15:00,
2013-03-27 13:30:00,52.6,13.7,29.72,WSW,247,6.0,15.0,21,0.00,,,-99.99,WeatherLink 5.5,2013-03-27 17:30:00,
2013-03-27 13:45:00,51.6,11.8,29.72,West,270,9.0,15.0,20,0.00,,,-99.99,WeatherLink 5.5,2013-03-27 17:45:00,
2013-03-27 14:00:00,51.7,13.0,29.71,WNW,292,6.0,15.0,21,0.00,,,-99.99,WeatherLink 5.5,2013-03-27 18:00:00,
2013-03-27 14:15:00,52.2,13.4,29.71,West,270,5.0,11.0,21,0.00,,,-99.99,WeatherLink 5.5,2013-03-27 18:15:00,
2013-03-27 14:30:00,51.9,13.1,29.71,West,270,9.0,18.0,21,0.00,,,-99.99,WeatherLink 5.5,2013-03-27 18:30:00,
2013-03-27 14:45:00,51.1,12.5,29.71,WSW,247,6.0,13.0,21,0.00,,,-99.99,WeatherLink 5.5,2013-03-27 18:45:00,
2013-03-27 15:00:00,51.3,11.5,29.71,West,270,7.0,13.0,20,0.00,,,-99.99,WeatherLink 5.5,2013-03-27 19:00:00,
2013-03-27 15:15:00,51.0,11.3,29.72,West,270,8.0,11.0,20,0.00,,,-99.99,WeatherLink 5.5,2013-03-27 19:15:00,
2013-03-27 15:30:00,51.0,12.4,29.71,West,270,5.0,10.0,21,0.00,,,-99.99,WeatherLink 5.5,2013-03-27 19:30:00,
2013-03-27 15:45:00,51.4,12.7,29.71,West,270,8.0,17.0,21,0.00,,,-99.99,WeatherLink 5.5,2013-03-27 19:45:00,
2013-03-27 16:00:00,51.1,11.4,29.71,WNW,292,8.0,16.0,20,0.00,,,-99.99,WeatherLink 5.5,2013-03-27 20:00:00,
2013-03-27 16:15:00,51.3,12.6,29.72,West,270,6.0,15.0,21,0.00,,,-99.99,WeatherLink 5.5,2013-03-27 20:15:00,
2013-03-27 16:30:00,50.2,11.7,29.72,WNW,292,6.0,11.0,21,0.00,,,-99.99,WeatherLink 5.5,2013-03-27 20:30:00,
2013-03-27 16:45:00,50.2,13.8,29.73,West,270,4.0,9.0,23,0.00,,,-99.99,WeatherLink 5.5,2013-03-27 20:45:00,
2013-03-27 17:00:00,49.9,13.5,29.73,West,270,6.0,15.0,23,0.00,,,-99.99,WeatherLink 5.5,2013-03-27 21:00:00,
2013-03-27 17:15:00,49.6,15.2,29.74,WNW,292,5.0,14.0,25,0.00,,,-99.99,WeatherLink 5.5,2013-03-27 21:15:00,
2013-03-27 17:30:00,49.8,13.4,29.74,West,270,9.0,20.0,23,0.00,,,-99.99,WeatherLink 5.5,2013-03-27 21:30:00,
2013-03-27 17:45:00,49.1,14.7,29.75,NW,315,5.0,13.0,25,0.00,,,-99.99,WeatherLink 5.5,2013-03-27 21:45:00,
2013-03-27 18:00:00,49.1,15.6,29.75,WNW,292,3.0,7.0,26,0.00,,,-99.99,WeatherLink 5.5,2013-03-27 22:00:00,
2013-03-27 18:15:00,48.9,14.6,29.75,WNW,292,5.0,16.0,25,0.00,,,-99.99,WeatherLink 5.5,2013-03-27 22:15:00,
2013-03-27 18:30:00,49.1,14.7,29.76,West,270,4.0,9.0,25,0.00,,,-99.99,WeatherLink 5.5,2013-03-27 22:30:00,
2013-03-27 18:45:00,49.1,14.7,29.76,WSW,247,4.0,8.0,25,0.00,,,-99.99,WeatherLink 5.5,2013-03-27 22:45:00,
2013-03-27 19:00:00,48.5,15.1,29.77,WNW,292,5.0,10.0,26,0.00,,,-99.99,WeatherLink 5.5,2013-03-27 23:00:00,
2013-03-27 19:15:00,48.2,16.6,29.77,WSW,247,5.0,9.0,28,0.00,,,-99.99,WeatherLink 5.5,2013-03-27 23:15:00,
2013-03-27 19:30:00,47.7,16.1,29.78,WNW,292,7.0,14.0,28,0.00,,,-99.99,WeatherLink 5.5,2013-03-27 23:30:00,
2013-03-27 19:45:00,47.3,17.4,29.78,West,270,2.0,8.0,30,0.00,,,-99.99,WeatherLink 5.5,2013-03-27 23:45:00,
2013-03-27 20:00:00,46.8,17.0,29.79,WNW,292,4.0,9.0,30,0.00,,,-99.99,WeatherLink 5.5,2013-03-28 00:00:00,
2013-03-27 20:15:00,46.4,18.1,29.79,West,270,0.0,2.0,32,0.00,,,-99.99,WeatherLink 5.5,2013-03-28 00:15:00,
2013-03-27 20:30:00,45.7,20.2,29.80,West,270,2.0,10.0,36,0.00,,,-99.99,WeatherLink 5.5,2013-03-28 00:30:00,
2013-03-27 20:45:00,45.1,21.6,29.81,NW,315,1.0,9.0,39,0.00,,,-99.99,WeatherLink 5.5,2013-03-28 00:45:00,
2013-03-27 21:00:00,44.6,22.3,29.82,WNW,292,2.0,10.0,41,0.00,,,-99.99,WeatherLink 5.5,2013-03-28 01:00:00,
2013-03-27 21:15:00,44.3,22.6,29.82,WNW,292,3.0,8.0,42,0.00,,,-99.99,WeatherLink 5.5,2013-03-28 01:15:00,
2013-03-27 21:30:00,44.2,22.5,29.83,West,270,1.0,6.0,42,0.00,,,-99.99,WeatherLink 5.5,2013-03-28 01:30:00,
2013-03-27 21:45:00,43.6,23.1,29.83,WNW,292,1.0,6.0,44,0.00,,,-99.99,WeatherLink 5.5,2013-03-28 01:45:00,
2013-03-27 22:00:00,43.2,23.8,29.83,WNW,292,1.0,7.0,46,0.00,,,-99.99,WeatherLink 5.5,2013-03-28 02:00:00,
2013-03-27 22:15:00,42.9,24.0,29.84,NW,315,2.0,10.0,47,0.00,,,-99.99,WeatherLink 5.5,2013-03-28 02:15:00,
2013-03-27 22:30:00,42.6,24.3,29.84,West,270,6.0,11.0,48,0.00,,,-99.99,WeatherLink 5.5,2013-03-28 02:30:00,
2013-03-27 22:45:00,42.3,24.5,29.84,NW,315,3.0,7.0,49,0.00,,,-99.99,WeatherLink 5.5,2013-03-28 02:45:00,
2013-03-27 23:00:00,41.8,25.0,29.84,West,270,4.0,15.0,51,0.00,,,-99.99,WeatherLink 5.5,2013-03-28 03:00:00,
2013-03-27 23:15:00,41.2,25.3,29.84,West,270,4.0,10.0,53,0.00,,,-99.99,WeatherLink 5.5,2013-03-28 03:15:00,
2013-03-27 23:30:00,40.8,25.9,29.85,WNW,292,4.0,10.0,55,0.00,,,-99.99,WeatherLink 5.5,2013-03-28 03:30:00,
2013-03-27 23:45:00,40.5,26.4,29.85,WNW,292,4.0,8.0,57,0.00,,,-99.99,WeatherLink 5.5,2013-03-28 03:45:00,